Home   Weather   Cedar Rapids   Past weeks
Flag for USA

Past Weather in Cedar Rapids, Iowa, USA — Yesterday and Last 2 Weeks

Now
50 °F

Mostly cloudy.


Feels Like: 42 °F
Forecast: 48 / 39 °F
Wind: 30 mph from Northwest

Location: Cedar Rapids Municipal Airport

Current Time: Mar 29, 2020 at 5:23:34 pm

Latest Report: Mar 29, 2020 at 4:52 pm


Visibility: 10 mi

Pressure: 29.87 "Hg

Humidity: 61%

Dew Point: 37 °F

Location of Cedar RapidsLocation

Past Weather in Cedar Rapids — Graph

°F

Cedar Rapids Temperature Yesterday

Maximum temperature yesterday: 67 °F (at 4:52 pm)
Minimum temperature yesterday: 45 °F (at 6:52 am)
Average temperature yesterday: 50 °F

High & Low Weather Summary for the Past Weeks

 TemperatureHumidityPressure
High67 °F (Mar 28, 4:52 pm)100% (Mar 18, 8:52 am)30.70 "Hg (Mar 18, 8:52 am)
Low23 °F (Mar 15, 2:52 am)41% (Mar 28, 7:52 pm)29.31 "Hg (Mar 28, 6:52 pm)
Average40 °F88%30.03 "Hg
* Reported Mar 14 3:33 pm — Mar 29 3:52 pm, Cedar Rapids. Weather by CustomWeather, © 2020

Note: Actual official high and low records may vary slightly from our data, if they occured in-between our weather recording intervals... More about our weather records

Cedar Rapids Weather History for the Previous 24 Hours

Scroll right to see more
 ConditionsComfort  
Time TempWeatherWind HumidityBarometerVisibility
3:52 pm
Sun, Mar 29
48 °FMostly cloudy.26 mph66%29.83 "Hg10 mi
2:52 pm47 °FMostly cloudy.32 mph69%29.81 "Hg10 mi
2:22 pm46 °FMostly cloudy.24 mph71%29.79 "Hg10 mi
1:52 pm46 °FMostly cloudy.25 mph71%29.78 "Hg10 mi
12:52 pm45 °FMostly cloudy.37 mph71%29.74 "Hg10 mi
11:52 am43 °FMostly cloudy.36 mph76%29.70 "Hg10 mi
10:52 am42 °FMostly cloudy.30 mph82%29.66 "Hg10 mi
9:52 am41 °FMostly cloudy.33 mph86%29.60 "Hg10 mi
8:52 am40 °FOvercast.30 mph86%29.55 "Hg10 mi
7:52 am39 °FOvercast.33 mph86%29.52 "Hg10 mi
7:16 am38 °FOvercast.25 mph90%29.49 "Hg10 mi
6:52 am38 °FOvercast.33 mph90%29.48 "Hg10 mi
5:52 am37 °FLow clouds.28 mph93%29.44 "Hg10 mi
5:37 am37 °FFog.25 mph100%29.43 "Hg3 mi
4:52 am38 °FOvercast.25 mph97%29.40 "Hg9 mi
4:30 am38 °FOvercast.29 mph97%29.38 "Hg9 mi
3:52 am40 °FFog.26 mph97%29.36 "Hg3 mi
3:38 am40 °FFog.25 mph100%29.35 "Hg2 mi
3:15 am40 °FFog.28 mph100%29.35 "Hg4 mi
2:52 am40 °FMostly cloudy.23 mph97%29.35 "Hg9 mi
1:52 am44 °FMostly cloudy.26 mph82%29.35 "Hg10 mi
1:06 am45 °FLight rain. Fog.23 mph97%29.37 "Hg3 mi
12:52 am48 °FMostly cloudy.30 mph80%29.36 "Hg5 mi
11:52 pm
Sat, Mar 28
51 °FOvercast.25 mph69%29.38 "Hg10 mi
10:52 pm51 °FClear.20 mph69%29.39 "Hg10 mi
9:52 pm54 °FClear.25 mph67%29.39 "Hg10 mi
8:52 pm59 °FClear.21 mph48%29.37 "Hg10 mi
7:52 pm61 °FPassing clouds.22 mph41%29.35 "Hg10 mi
6:52 pm66 °FBroken clouds.14 mph87%29.31 "Hg9 mi
5:52 pm66 °FBroken clouds.22 mph84%29.32 "Hg9 mi
5:29 pm66 °FPartly sunny.21 mph81%29.33 "Hg10 mi
Weather by CustomWeather, © 2020

See weather overview

Advertising